Flag for United Kingdom Weather past 2 weeks in Bolton, England, United Kingdom

Now
45 °F

Clear.


Feels Like: 45 °F
Forecast: 49 / 61 °F
Wind: 2 mph from South

Location: Manchester Airport

Current Time: Jul 31, 2015 at 1:09:15 AM

Latest Report: Jul 31, 2015 at 12:50 AM


Visibility: 10 mi

Pressure: 30.15 "Hg

Humidity: 93%

Dew point: 43 °F

Location of BoltonLocation

Historic Weather in Bolton — Graph

°F

Bolton temperature yesterday

Maximum temperature yesterday: 61 °F (at 1:50 PM)
Minimum temperature yesterday: 48 °F (at 1:20 AM)
Average temperature yesterday: 55 °F

Past Weeks' High & Low Weather Summary

 TemperatureHumidityPressure
High72 °F (Jul 16, 3:50 PM)100% (Jul 16, 2:20 AM)30.15 "Hg (Jul 16, 2:20 AM)
Low45 °F (Jul 16, 4:50 AM)46% (Jul 17, 4:50 PM)29.33 "Hg (Jul 26, 10:50 PM)
Average58 °F78%29.83 "Hg
* Reported Jul 15 11:20 PM — Jul 30 11:50 PM, Bolton, Weather by CustomWeather, © 2015

Note: Actual official high and low records may vary slightly from our data, if they occured in-between our weather recording intervals... More about our weather records

Advertising

Bolton weather history for previous 24 hours

 ConditionsComfort  
Time TempWeatherWind HumidityBarometerVisibility
11:50 PM
Thu, Jul 30
48 °FClear.2 mph82%30.15 "Hg10 mi
11:20 PM50 °FClear.3 mph76%30.15 "Hg10 mi
10:20 PM52 °FCool.5 mph72%30.15 "HgN/A
9:50 PM52 °FPassing clouds.6 mph72%30.15 "HgN/A
9:20 PM54 °FPassing clouds.5 mph67%30.12 "HgN/A
8:50 PM54 °FPassing clouds.6 mph67%30.12 "HgN/A
8:20 PM55 °FPassing clouds.9 mph67%30.12 "HgN/A
7:50 PM55 °FPassing clouds.8 mph63%30.12 "HgN/A
7:20 PM57 °FPassing clouds.12 mph55%30.12 "HgN/A
6:50 PM59 °FPassing clouds.12 mph51%30.12 "HgN/A
6:20 PM59 °FPassing clouds.14 mph55%30.12 "HgN/A
5:50 PM59 °FPassing clouds.14 mph59%30.12 "HgN/A
5:20 PM61 °FPassing clouds.17 mph59%30.12 "HgN/A
4:50 PM59 °FScattered clouds.14 mph55%30.12 "HgN/A
4:20 PM59 °FScattered clouds.14 mph55%30.12 "HgN/A
3:50 PM61 °FScattered clouds.15 mph55%30.12 "HgN/A
3:20 PM59 °FScattered clouds.15 mph59%30.12 "HgN/A
2:50 PM61 °FScattered clouds.14 mph55%30.12 "HgN/A
2:20 PM61 °FPartly sunny.N/A52%30.12 "HgN/A
1:50 PM61 °FScattered clouds.17 mph55%30.09 "HgN/A
1:20 PM59 °FScattered clouds.16 mph55%30.09 "HgN/A
12:50 PM59 °FScattered clouds.16 mph59%30.09 "HgN/A
12:20 PM57 °FScattered clouds.15 mph63%30.09 "HgN/A
11:50 AM57 °FScattered clouds.14 mph67%30.09 "HgN/A
11:20 AM57 °FBroken clouds.9 mph63%30.07 "HgN/A
10:50 AM57 °FBroken clouds.12 mph63%30.07 "HgN/A
10:20 AM55 °FPartly sunny.12 mph67%30.07 "HgN/A
9:50 AM55 °FPartly sunny.12 mph72%30.07 "HgN/A
9:20 AM55 °FBroken clouds.10 mph72%30.07 "HgN/A
8:50 AM54 °FBroken clouds.9 mph82%30.04 "HgN/A
8:20 AM55 °FPassing clouds.9 mph82%30.04 "HgN/A
7:50 AM52 °FSunny.7 mph94%30.04 "Hg10 mi
7:20 AM52 °FPassing clouds.9 mph100%30.04 "HgN/A
6:50 AM52 °FScattered clouds.8 mph94%30.01 "HgN/A
6:20 AM52 °FPartly cloudy.9 mph94%30.01 "HgN/A
5:50 AM52 °FRain showers. Partly cloudy.12 mph94%30.01 "HgN/A
5:20 AM52 °FRain. Partly cloudy.8 mph94%30.01 "HgN/A
4:50 AM52 °FLight rain. Passing clouds.10 mph94%30.01 "Hg4 mi
4:20 AM52 °FPartly cloudy.9 mph94%30.01 "HgN/A
3:50 AM52 °FPartly cloudy.5 mph88%30.01 "HgN/A
3:20 AM50 °FMostly cloudy.3 mph94%30.01 "HgN/A
2:50 AM48 °FPassing clouds.5 mph94%30.01 "HgN/A
2:20 AM48 °FPassing clouds.3 mph94%30.01 "HgN/A
1:50 AM48 °FClear.6 mph94%30.01 "Hg10 mi
1:20 AM48 °FClear.6 mph94%30.01 "Hg10 mi
Weather by CustomWeather, © 2015

See weather overviewHow to use our weather pages